Showing default

SNUGLITE, 43784

Orbit data source: Space-Track

SNUGLITE, 43784 is a payload satellite owned by SNU (KR) in SSO that was launched on Mon, 03 Dec 2018 UTC via an FALCON 9 launch vehicle from the Air Force Western Test Range (AFWTR). Payload-class satellites include a variety of spacecraft equipped with specific instruments for various scientific and technological missions. These include communications satellites like Starlink; space stations such as the ISS; scientific satellites like the Hubble; Earth observation satellites from companies like Planet Labs, Umbra, and HawkEye 360; GPS; miniature CubeSats for education and research; and military/defense satellites.

Loading next visibility...
Identifier
43784, 2018-099AC
Orbit
SSO
Last TLE update
1 day ago
Origin
Manufacturer
SNU
Mission
Operational Amateur Technology
Bus & Motor
CUBESAT 2U, Unknown motor
Mass
2 kg wet, 2 kg dry
Launch date (UTC)
2018-12-03 (6 years ago)
Launch vehicle
FALCON 9
Launch site
Air Force Western Test Range (AFWTR)
Object type
Payload
Rocket body
Debris
Shape & HBR
Box + 1 Rod, 0.4 m
Radar Cross Section
0.025 m², Small (<0.1 m²)

Expand to show TLE details & history

TLE from 1 day ago
0 SNUGLITE
1 43784U 18099AC  25114.57551814  .00017078  00000-0  87707-3 0  9997
2 43784  97.4457 169.7829 0002228 336.8713  23.2419 15.16563257349661
Epoch: 2025-04-24T13:48Z
Definitive object data (Epoch: 2025-04-24T13:48:44.767Z)
Latitude
-0.00007°
Longitude
109.7514°
Altitude
517.91 km
Speed
7.605 km/s
True Right ascension
11h 19m 07s
True Declination
0° 00' 00"
Sunlit
Object was in full shadow at TLE epoch
Visualization TLE readout
Latitude
-77.06713°
Longitude
-103.63721°
Altitude
543.343 km
Speed
7.59 km/s
Apparent Right ascension
12h 29m 40s
Apparent Declination
-70° 44' 51"
Sunlit
Object is in daylight
Visualization observer readout
Local Sidereal Time
23:32:34
Azimuth
188.902° SSW
Elevation
-58.306°
Doppler factor
1
Orbital elements
Apogee altitude
514.744 km
Perigee altitude
511.673 km
Semi-major axis
6,891.346 km
Eccentricity
0.0002228
Inclination
97.4457°
RAAN
169.7829°
Arg. of periapsis
336.8713°
True anomaly
23.25198°
Mean anomaly
23.2419°
Eccentric anomaly
23.24694°
Mean motion
3.79391 °/min
BSTAR
0.00087707
Orbital period
94.89 mins
Loading maneuver chart data...
Loading SW <> Apogee altitude chart data...
Loading historical data...
Loading historical data...
Loading historical data...
Loading historical data...
Loading historical data...
Loading historical data...
Loading historical data...

SNUGLITE Visibility forecast

Observer location: undefined°, undefined°

Span
Click to sort rows by Start time (UTC) header in descending order
Start Az.
Max El. time (UTC)
Max El. Az.
Max El.
End time (UTC)
End Az.
5 mins2025-04-25 17:17:19.454Z340.781° N2025-04-25 17:20:19.454Z284.374° WNW21.008°2025-04-25 17:22:19.454Z245.686° WSW
5 mins2025-04-26 03:57:19.454Z190.527° SSW2025-04-26 03:59:19.454Z252.021° W38.768°2025-04-26 04:02:19.454Z335.025° NNW
|